Regional Weather Roundup
Issued by NWS

Home | Current Version | Previous Version | Graphics & Text | Print | Product List | Glossary On
Versions: 1 2 3 4 5 6 7 8 9 10 11 12 13 14 15 16 17 18 19 20 21 22 23 24 25 26 27 28 29 30 31 32 33 34 35 36 37 38 39 40 41 42 43 44 45 46 47 48 49 50
000
ASUS43 KLOT 240208
RWRIL

ILLINOIS REGIONAL WEATHER ROUNDUP
NATIONAL WEATHER SERVICE CHICAGO/ROMEOVILLE IL
900 PM CDT SAT MAY 23 2015

NOTE: "FAIR" INDICATES FEW OR NO CLOUDS BELOW 12,000 FEET WITH NO
SIGNIFICANT WEATHER AND/OR OBSTRUCTIONS TO VISIBILITY.

* THESE STATIONS ARE NOT UNDER NWS QUALITY CONTROL. THEY ALSO MAY NOT
  REPORT WEATHER SUCH AS PRECIPITATION OR FOG.

ILZ001-002-007-009-015-016-024-240300-
NORTHWEST ILLINOIS

CITY           SKY/WX    TMP DP  RH WIND       PRES   REMARKS
MOLINE         MOCLDY    67  48  50 SE5       30.14S
STERLING*      PTCLDY    72  48  43 S3        30.16S
SAVANNA*       CLEAR     69  49  49 SE3       30.15S
$$

ILZ003-004-008-010-011-017-018-240300-
NORTH CENTRAL ILLINOIS

CITY           SKY/WX    TMP DP  RH WIND       PRES   REMARKS
ROCKFORD       PTCLDY    71  45  39 S5        30.18S
FREEPORT*      PTCLDY    63  47  57 S6        30.18S
ROCHELLE*      PTCLDY    67  49  53 S6        30.17S
DE KALB*       CLEAR     67  46  48 S3        30.19S
PERU*          PTCLDY    70  48  45 S7        30.17S
$$

ILZ005-006-012>014-019>023-240300-
NORTHEAST ILLINOIS

CITY           SKY/WX    TMP DP  RH WIND       PRES   REMARKS
CHICAGO-OHARE  PTCLDY    69  42  37 E7        30.18S
CHICAGO-MIDWAY PTCLDY    70  44  39 E7        30.18S
AURORA         CLEAR     67  47  48 S3        30.18S
LANSING*       CLEAR     67  41  38 S7        30.20R
JOLIET*        CLEAR     66  51  58 CALM      30.18S
WAUKEGAN       MOCLDY    57  41  55 SE5       30.19S
DUPAGE AIRPORT PTCLDY    66  48  52 CALM      30.17S
KANKAKEE*      PTCLDY    70  46  41 SE7       30.20S
WHEELING       MOCLDY    66  41  40 SE5       30.20S
MORRIS*        CLEAR     70  47  43 S3        30.17R
ROMEOVILLE*    CLEAR     68  44  42 S7        30.18S
NORTHERLY ISL    N/A     58  44  60 CALM        N/A
$$

LMZ740>746-240300-
SOUTHERN LAKE MICHIGAN

STATION/POSITION SKY/WX   TEMP    WIND        PRES    VSBY  WAVE
                          AIR SEA DIR/SP/G                  HT/PER
                          (F)     (DEG/KT/KT) (MB)    (MI)  (FT/S)
SOUTHERN BUOY              47 38  120/ 10/ 10 1023.1F         0
HARRISON CRIB              56     160/  7/  8   N/A
BURNHAM HARBOR             60        CALM       N/A
CALUMET HARBOR             62     110/  8/  9   N/A
BURNS HARBOR               60      80/  6/  7 1023.0S
MICHIGAN CITY              70      40/  3/  5   N/A
MICHIGAN CITY 6N           60 53  100/  4/  6   N/A           1
ST. JOSEPH                 67 57  130/  4/  6   N/A           0
$$

ILZ025>027-034>036-040-047-049-050-058-095>099-240300-
WEST-CENTRAL ILLINOIS

CITY           SKY/WX    TMP DP  RH WIND       PRES   REMARKS
QUINCY         CLOUDY    69  51  52 SE5       30.14S
GALESBURG*     CLOUDY    70  48  45 S3        30.16R
MACOMB*        CLOUDY    72  49  44 SE8       30.17S
JACKSONVILLE*  CLOUDY    72  52  48 SE6       30.16S
PITTSFIELD*    CLOUDY    71  50  47 SE7       30.16S
$$

ILZ028>032-037-038-041>044-048-051>054-059>061-240300-
CENTRAL ILLINOIS

CITY           SKY/WX    TMP DP  RH WIND       PRES   REMARKS
PONTIAC        MOCLDY    70  49  46 S6        30.20R
BLOOMINGTON    CLOUDY    68  51  54 S8        30.21R
DECATUR        CLOUDY    69  51  52 SE7       30.20R
PEORIA         CLOUDY    73  49  42 SE5       30.17S
LACON*         MOCLDY    70  49  48 SE5       30.16S
LINCOLN*       CLOUDY    71  51  48 SE6       30.17R
SPRINGFIELD    CLOUDY    72  51  47 SE8       30.17F
TAYLORVILLE    CLOUDY    68  52  56 SE5       30.19S
$$

ILZ033-039-045-046-055>057-062-063-240300-
EAST-CENTRAL ILLINOIS

CITY           SKY/WX    TMP DP  RH WIND       PRES   REMARKS
CHAMPAIGN      CLOUDY    71  47  42 S8        30.21S
DANVILLE*      MOCLDY    70  48  45 SE5       30.20R
RANTOUL*       MOCLDY    73  48  42 SE5       30.21R
MATTOON        CLOUDY    69  48  47 CALM      30.21R
PARIS*         CLOUDY    69  48  46 SE6       30.23R
$$

ILZ079-100>102-240300-
SOUTHWEST ILLINOIS

CITY           SKY/WX    TMP DP  RH WIND       PRES   REMARKS
ALTON          PTCLDY    68  54  60 SE7         N/A
BELLEVILLE     CLOUDY    68  55  62 E3        30.16R
CAHOKIA*       CLOUDY    68  53  58 CALM      30.17R
SPARTA*        CLOUDY    70  55  58 CALM      30.18S
$$

ILZ064>066-069>071-074>076-080>082-084>086-088>090-092>094-240300-
SOUTH-CENTRAL ILLINOIS

CITY           SKY/WX    TMP DP  RH WIND       PRES   REMARKS
CARBONDALE     MOCLDY    70  53  54 SE7       30.18S
CAIRO*         PTCLDY    70  57  63 E5        30.17S
EFFINGHAM*     CLOUDY    66  52  61 CALM      30.22S
MARION         MOCLDY    70  54  56 SE5       30.19S
MT. VERNON     CLOUDY    70  50  49 E3        30.20S
CENTRALIA*     CLOUDY    67  49  52 E3        30.19S
SALEM*         CLOUDY    72  47  41 E3        30.20S
METROPOLIS*    PTCLDY    68  56  66 CALM      30.18S
$$

ILZ067-068-072-073-078-083-087-091-240300-
SOUTHEAST ILLINOIS

CITY           SKY/WX    TMP DP  RH WIND       PRES   REMARKS
LAWRENCEVILLE  MOCLDY    68  50  52 SE6       30.22R
FLORA*         MOCLDY    67  51  56 SE5       30.21S
FAIRFIELD*     MOCLDY    67  53  60 CALM      30.19S
HARRISBURG*    MOCLDY    69  56  63 SE3       30.20F
ROBINSON*      MOCLDY    67  52  56 CALM      30.22R
CARMI*         MOCLDY    64  52  63 E6        30.20S
$$

ABBREVIATIONS USED IN REMARKS
   TC - TEMPERATURE IN CELSIUS
  WCI - WIND CHILL INDEX
   HX - HEAT INDEX
  VSB - VISIBILITY
$$



USA.gov is the U.S. government's official web portal to all federal, state and local government web resources and services.